カタログに戻る

STARLINK-4443

運用中通信SSO
NORAD 53508·PAYLOAD·🇺🇸 United States

打ち上げ Aug 12, 2022 から Vandenberg Space Force Base

Loading…

次のパス (今後24時間)

TLE

最新Source: CelesTrak SupGP

元期: Sep 14, 2026, 20:45 UTC

1 53508C 22099AV  26257.86506944  .00061494  00000+0  19060-2 0  2575
2 53508  97.2865  15.6208 0001314 103.2063 152.2868 15.33456763    12

AllMySatでSTARLINK-4443をリアルタイム追跡

Download on the App Store